Change the Weather History Date:

Sunday, February 23, 2014

  Actual Average (KHBI) Record (KHBI)
Temperature  
Mean Temperature 49 °F -  
Max Temperature 66 °F 56 °F 76 °F (1962)
Min Temperature 32 °F 36 °F 12 °F (1978)
Degree Days  
Heating Degree Days 16    
Moisture  
Dew Point 35 °F    
Average Humidity 63    
Maximum Humidity 94    
Minimum Humidity 30    
Precipitation  
Precipitation 0.00 in - - ()
Sea Level Pressure  
Sea Level Pressure 30.01 in    
Wind  
Wind Speed 2 mph (SSW)    
Max Wind Speed 13 mph    
Max Gust Speed 17 mph    
Visibility 10 miles    
Events      
Averages and records for this station are not official NWS values.
T = Trace of Precipitation, MM = Missing Value Source: NWS Daily Summary

Daily Weather History Graph

Daily Weather History Graph

Search for Another Location

Airport or City:

Trip Planner

Search our weather history database for the weather conditions in past years. The results will help you decide how hot, cold, wet, or windy it might be!

Date:

Astronomy

Feb. 23, 2014 Rise Set
Actual Time 6:55 AM EST 6:07 PM EST
Civil Twilight 6:29 AM EST 6:33 PM EST
Nautical Twilight 6:00 AM EST 7:03 PM EST
Astronomical Twilight 5:30 AM EST 7:32 PM EST
Moon 1:46 AM EST (2/23) 12:14 PM EST (2/23)
Length of Visible Light 12h 03m
Length of Day
11h 12m
Last Quarter, 39% of the Moon is Illuminated
Feb 23
Last Quarter
Mar 1
New
Mar 8
First Quarter
Mar 16
Full
Mar 23
Last Quarter

Hourly Weather History & Observations

Time (EST) Temp. Dew Point Humidity Pressure Visibility Wind Dir Wind Speed Gust Speed Precip Events Conditions
12:15 AM 34.3 °F 29.7 °F 83% 30.10 in 10.0 mi Calm Calm - N/A   Clear
12:35 AM 33.4 °F 29.1 °F 84% 30.11 in 10.0 mi Calm Calm - N/A   Clear
12:55 AM 33.3 °F 29.5 °F 86% 30.11 in 10.0 mi Calm Calm - N/A   Clear
1:15 AM 33.1 °F 29.3 °F 86% 30.10 in 10.0 mi Calm Calm - N/A   Clear
1:35 AM 32.0 °F 28.8 °F 88% 30.10 in 10.0 mi Calm Calm - N/A   Clear
1:55 AM 32.0 °F 29.1 °F 89% 30.09 in 10.0 mi Calm Calm - N/A   Clear
2:15 AM 32.4 °F 29.3 °F 88% 30.09 in 10.0 mi Calm Calm - N/A   Clear
2:35 AM 32.5 °F 30.0 °F 90% 30.09 in 10.0 mi Calm Calm - N/A   Clear
2:55 AM 32.0 °F 29.7 °F 91% 30.08 in 10.0 mi Calm Calm - N/A   Clear
3:15 AM 32.4 °F 29.7 °F 90% 30.08 in 10.0 mi Calm Calm - N/A   Clear
3:35 AM 32.0 °F 29.1 °F 89% 30.08 in 10.0 mi Calm Calm - N/A   Clear
3:55 AM 32.7 °F 30.2 °F 90% 30.07 in 10.0 mi Calm Calm - N/A   Clear
4:15 AM 32.2 °F 29.8 °F 91% 30.08 in 10.0 mi Calm Calm - N/A   Clear
4:35 AM 32.2 °F 29.8 °F 91% 30.08 in 10.0 mi Calm Calm - N/A   Clear
4:55 AM 33.1 °F 30.7 °F 91% 30.08 in 10.0 mi Calm Calm - N/A   Clear
5:15 AM 32.2 °F 30.6 °F 94% 30.08 in 10.0 mi Calm Calm - N/A   Clear
5:35 AM 33.6 °F 30.9 °F 90% 30.08 in 10.0 mi Calm Calm - N/A   Clear
5:55 AM 34.0 °F 31.8 °F 92% 30.09 in 10.0 mi Calm Calm - N/A   Clear
6:15 AM 34.5 °F 32.0 °F 90% 30.09 in 10.0 mi Calm Calm - N/A   Clear
6:35 AM 35.2 °F 32.0 °F 88% 30.09 in 10.0 mi Calm Calm - N/A   Clear
6:55 AM 34.2 °F 32.2 °F 92% 30.09 in 10.0 mi Calm Calm - N/A   Clear
7:15 AM 35.4 °F 32.5 °F 89% 30.09 in 10.0 mi Calm Calm - N/A   Clear
7:35 AM 36.0 °F 33.3 °F 90% 30.09 in 10.0 mi Calm Calm - N/A   Clear
7:55 AM 36.5 °F 33.6 °F 89% 30.09 in 10.0 mi Calm Calm - N/A   Clear
8:15 AM 41.2 °F 36.9 °F 85% 30.10 in 10.0 mi Calm Calm - N/A   Scattered Clouds
8:35 AM 43.7 °F 37.9 °F 80% 30.09 in 10.0 mi Calm Calm - N/A   Scattered Clouds
8:55 AM 48.4 °F 37.8 °F 67% 30.09 in 10.0 mi Calm Calm - N/A   Mostly Cloudy
9:15 AM 51.3 °F 34.0 °F 52% 30.09 in 10.0 mi SW 3.5 mph - N/A   Scattered Clouds
9:35 AM 53.1 °F 34.2 °F 49% 30.09 in 10.0 mi SSW 4.6 mph - N/A   Clear
9:55 AM 55.2 °F 35.2 °F 47% 30.07 in 10.0 mi SSW 3.5 mph - N/A   Scattered Clouds
10:15 AM 58.3 °F 36.5 °F 44% 30.06 in 10.0 mi West 4.6 mph - N/A   Scattered Clouds
10:35 AM 59.5 °F 36.7 °F 43% 30.06 in 10.0 mi WSW 9.2 mph - N/A   Clear
10:55 AM 59.7 °F 36.5 °F 42% 30.05 in 10.0 mi SSW 8.1 mph - N/A   Clear
11:15 AM 59.9 °F 37.8 °F 44% 30.04 in 10.0 mi SSW 10.4 mph - N/A   Clear
11:35 AM 59.9 °F 37.4 °F 43% 30.04 in 10.0 mi SSW 9.2 mph - N/A   Clear
11:55 AM 60.1 °F 37.2 °F 43% 30.04 in 10.0 mi South 12.7 mph - N/A   Clear
12:15 PM 60.4 °F 36.7 °F 41% 30.03 in 10.0 mi SSW 9.2 mph - N/A   Clear
12:35 PM 62.2 °F 36.5 °F 38% 30.02 in 10.0 mi SSW 11.5 mph 16.1 mph N/A   Clear
12:55 PM 62.1 °F 35.4 °F 37% 30.01 in 10.0 mi SSW 12.7 mph 17.3 mph N/A   Clear
1:15 PM 63.0 °F 35.1 °F 35% 30.00 in 10.0 mi SSW 8.1 mph - N/A   Clear
1:35 PM 64.2 °F 34.9 °F 34% 29.99 in 10.0 mi SW 6.9 mph 17.3 mph N/A   Clear
1:55 PM 64.8 °F 32.9 °F 30% 29.97 in 10.0 mi SW 9.2 mph 16.1 mph N/A   Clear
2:15 PM 64.9 °F 34.0 °F 32% 29.96 in 10.0 mi SW 8.1 mph - N/A   Clear
2:35 PM 65.7 °F 33.4 °F 30% 29.96 in 10.0 mi South 11.5 mph - N/A   Clear
2:55 PM 66.2 °F 33.8 °F 30% 29.95 in 10.0 mi SSW 9.2 mph - N/A   Clear
3:15 PM 66.2 °F 33.8 °F 30% 29.95 in 10.0 mi SW 6.9 mph 16.1 mph N/A   Clear
3:35 PM 66.4 °F 34.9 °F 31% 29.94 in 10.0 mi SSW 10.4 mph - N/A   Clear
3:55 PM 66.7 °F 36.9 °F 33% 29.94 in 10.0 mi SSW 6.9 mph - N/A   Clear
4:15 PM 65.5 °F 35.8 °F 33% 29.94 in 10.0 mi South 9.2 mph - N/A   Clear
4:35 PM 64.8 °F 37.2 °F 36% 29.93 in 10.0 mi SSW 8.1 mph - N/A   Clear
4:55 PM 64.4 °F 36.7 °F 36% 29.92 in 10.0 mi SSW 9.2 mph - N/A   Clear
5:15 PM 63.5 °F 37.8 °F 39% 29.92 in 10.0 mi South 6.9 mph - N/A   Clear
5:35 PM 62.6 °F 38.8 °F 42% 29.91 in 10.0 mi South 6.9 mph - N/A   Clear
5:55 PM 61.0 °F 38.7 °F 44% 29.91 in 10.0 mi South 5.8 mph - N/A   Clear
6:15 PM 59.7 °F 38.3 °F 45% 29.91 in 10.0 mi South 3.5 mph - N/A   Clear
6:35 PM 57.7 °F 38.3 °F 48% 29.91 in 10.0 mi South 4.6 mph - N/A   Clear
6:55 PM 56.3 °F 38.3 °F 51% 29.90 in 10.0 mi South 4.6 mph - N/A   Clear
7:15 PM 56.8 °F 38.5 °F 50% 29.90 in 10.0 mi South 5.8 mph - N/A   Clear
7:35 PM 56.5 °F 38.5 °F 51% 29.90 in 10.0 mi SSW 4.6 mph - N/A   Clear
7:55 PM 55.6 °F 38.3 °F 52% 29.90 in 10.0 mi SSW 3.5 mph - N/A   Clear
8:15 PM 55.0 °F 38.7 °F 54% 29.90 in 10.0 mi SSW 6.9 mph - N/A   Clear
8:35 PM 55.9 °F 38.7 °F 52% 29.90 in 10.0 mi SSW 4.6 mph - N/A   Clear
8:55 PM 55.4 °F 38.8 °F 54% 29.90 in 10.0 mi SSW 3.5 mph - N/A   Clear
9:15 PM 54.3 °F 39.2 °F 57% 29.90 in 10.0 mi SSW 3.5 mph - N/A   Clear
9:35 PM 50.5 °F 38.7 °F 64% 29.91 in 10.0 mi Calm Calm - N/A   Clear
9:55 PM 47.5 °F 38.7 °F 71% 29.90 in 10.0 mi Calm Calm - N/A   Clear
10:15 PM 46.0 °F 39.0 °F 76% 29.89 in 10.0 mi Calm Calm - N/A   Clear
10:35 PM 47.3 °F 39.2 °F 73% 29.89 in 10.0 mi SSW 4.6 mph - N/A   Clear
10:55 PM 50.2 °F 40.5 °F 69% 29.89 in 10.0 mi SSW 3.5 mph - N/A   Clear
11:15 PM 47.1 °F 39.6 °F 75% 29.89 in 10.0 mi Calm Calm - N/A   Clear
11:35 PM 45.7 °F 39.4 °F 79% 29.89 in 10.0 mi Calm Calm - N/A   Clear
11:55 PM 45.9 °F 40.1 °F 80% 29.89 in 10.0 mi Calm Calm - N/A   Clear